Regional Weather Roundup
Issued by NWS

Home | Current Version | Previous Version | Graphics & Text | Print | Product List | Glossary On
Versions: 1 2 3 4 5 6 7 8 9 10 11 12 13 14 15 16 17 18 19 20 21 22 23 24 25 26 27 28 29 30 31 32 33 34 35 36 37 38 39 40 41 42 43 44 45 46 47 48 49 50
000
ASUS43 KLSX 011559
RWRMO

WEATHER SUMMARY FOR MISSOURI
NATIONAL WEATHER SERVICE SPRINGFIELD MO
1000 AM CST SUN FEB 01 2015

NOTE: "FAIR" INDICATES FEW OR NO CLOUDS BELOW 12,000 FEET WITH NO
       SIGNIFICANT WEATHER AND/OR OBSTRUCTIONS TO VISIBILITY.
       CURRENT SKY AND/OR WEATHER CONDITIONS ARE NOT AVAILABLE FOR
       CHILLICOTHE AND FARMINGTON.

MOZ001>031-035>038-043-044-053-054-011700-
...NORTHERN AND WESTERN MISSOURI...

CITY           SKY/WX    TMP DP  RH WIND       PRES   REMARKS
KANSAS CTY INT LGT SNOW  32  32 100 NW13      29.76R FOG     WCI  22
KANSAS C DTWN  FLURRIES  34  32  92 NW10      29.76R WCI  26
LEE`S SUMMIT   CLOUDY    33  32  96 NW14      29.74R WCI  23
ST JOSEPH      LGT SNOW  33  32  96 NW14      29.79R VSB 1   WCI  23
CHILLICOTHE      N/A     34  32  92 N3        29.74S
KIRKSVILLE       N/A     33  33 100 MISG      29.72S FOG

$$
MOZ066>068-077>081-088>096-101>105-011700-
...SOUTHWEST MISSOURI...

CITY           SKY/WX    TMP DP  RH WIND       PRES   REMARKS
SPRINGFIELD    LGT RAIN  44  41  89 W13       29.71S FOG
JOPLIN         LGT RAIN  41  39  93 W24G36    29.77R

$$
MOZ032>034-039>042-045>050-055>058-069>072-011700-
...CENTRAL MISSOURI...

CITY           SKY/WX    TMP DP  RH WIND       PRES   REMARKS
COLUMBIA       LGT RAIN  35  35 100 SW3       29.70F FOG
JEFFERSON CITY LGT RAIN  38  37  97 CALM      29.71F FOG
ROLLA          LGT RAIN  38  36  92 SW9       29.68F FOG
SEDALIA        LGT RAIN  37  36  96 SW5       29.70F FOG
OSAGE BEACH    CLOUDY    39  37  93 SW5       29.71S

$$
MOZ051-052-059>065-011700-
...EAST CENTRAL MISSOURI...

CITY           SKY/WX    TMP DP  RH WIND       PRES   REMARKS
ST LOUIS INTL  CLOUDY    38  35  89 SE6       29.72F FOG
SPIRIT OF STL  CLOUDY    37  36  96 CALM      29.71F FOG
ST CHARLES     MIX PCPN  36  35  96 SE6       29.72F FOG

$$
MOZ072>076-082>087-097>100-106>115-011700-
...SOUTH CENTRAL AND SOUTHEAST MISSOURI...

CITY           SKY/WX    TMP DP  RH WIND       PRES   REMARKS
CAPE GIRARDEAU CLOUDY    44  43  96 S5        29.77F FOG
FARMINGTON     CLOUDY    39  37  93 S10       29.74F
POPLAR BLUFF   LGT RAIN  44  41  89 S5        29.75F FOG
WEST PLAINS    CLOUDY    45  43  93 SW13      29.72F FOG

$$


USA.gov is the U.S. government's official web portal to all federal, state and local government web resources and services.